Location: Dodge City Co - Operative Exchange Grain Elevator Number 8
(38.1218°N, 99.7124°W)
Time: 02:08:34
(UTC+00:00)

CZ-4B R/B - Pass Details

Date: 03 March 2021
Orbit: 388 x 454 km, 97.6° (Epoch: 14 April)

Event Time Altitude Azimuth Distance (km) Brightness Sun altitude
Rises 12:02:57 0° 169° (S) 2,354 5.2 -13.5°
Reaches altitude 10° 12:04:58 10° 171° (S) 1,483 4.1 -13.1°
Maximum altitude 12:08:07 78° 257° (WSW) 422 1.1 -12.5°
Drops below altitude 10° 12:11:14 10° 345° (NNW) 1,462 3.9 -11.8°
Sets 12:13:12 0° 347° (NNW) 2,316 4.9 -11.5°
